This is the latest recevied weather packets stored in our database for station/object EDXW. If no packets are shown the sender has not sent any weather packets the latest 10 day(s).
| Time | Temp. | Humidity | Pressure | Rain* | Wind** | Luminosity | Snow |
|---|---|---|---|---|---|---|---|
| 1777785002 | 31.67° C | - | 1012 hPa | 0 mm | - | - | - |
| 1777781402 | 31.67° C | 5% | 1012 hPa | 0 mm | - | - | - |
| 1777774202 | 31.67° C | 100% | 1013 hPa | 0 mm | - | - | - |
| 1777770602 | 31.67° C | 20% | 1013 hPa | 0 mm | - | - | - |
| 1777759802 | 10° C | 95% | 1013 hPa | 0 mm | - | - | - |
| 1777756204 | 10° C | 10% | 1014 hPa | 0 mm | - | - | - |
| 1777752603 | 10.56° C | 10% | 1014 hPa | 0 mm | - | - | - |
| 1777745401 | 12.78° C | 90% | 1014 hPa | 0 mm | - | - | - |
| 1777741801 | 13.89° C | 85% | 1014 hPa | 0 mm | - | - | - |
| 1777738202 | 15° C | 85% | 1014 hPa | 0 mm | - | - | - |
| 1777734601 | 13.89° C | 80% | 1015 hPa | 0 mm | - | - | - |
| 1777731002 | 15° C | 65% | 1015 hPa | 0 mm | - | - | - |
| 1777727402 | 16.67° C | 55% | 1016 hPa | 0 mm | - | - | - |
| 1777723802 | 17.78° C | 55% | 1016 hPa | 0 mm | - | - | - |
| 1777720201 | 16.67° C | 65% | 1016 hPa | 0 mm | - | - | - |
| 1777716813 | 15.56° C | 60% | 1017 hPa | 0 mm | - | - | - |
| 1777713002 | 16.67° C | 55% | 1017 hPa | 0 mm | - | - | - |
| 1777709401 | 15.56° C | 60% | 1017 hPa | 0 mm | - | - | - |
| 1777705802 | 15.56° C | 60% | 1017 hPa | 0 mm | - | - | - |
| 1777702201 | 15° C | 70% | 1017 hPa | 0 mm | - | - | - |
| 1777698602 | 12.78° C | 80% | 1017 hPa | 0 mm | - | - | - |
| 1777695002 | 11.67° C | 80% | 1018 hPa | 0 mm | - | - | - |
| 1777691402 | 12.78° C | 80% | 1018 hPa | 0 mm | - | - | - |
| 1777687802 | 12.78° C | 80% | 1019 hPa | 0 mm | - | - | - |
| 1777684202 | 11.67° C | 80% | 1020 hPa | 0 mm | - | - | - |
* Rain latest 24 hours (hover to see other rain measurements)
** Current wind speed in m/s (hover to see current wind gust speed)